{"data":{"norad_id":68511,"intl_designator":"2026-068D","name":"STARLINK-37280","alt_names":[],"object_type":"PAYLOAD","status":"ACTIVE","operator":null,"country":"US","launch_date":"2026-03-30","launch_site_code":"AFETR","launch_vehicle":null,"mission":null,"orbit_class":"UNKNOWN","rcs_meters":null,"size_class":null,"mass_kg":null,"dimensions":null,"purposes":["comms"],"wikipedia_slug":null,"has_3d_model":false,"image_url":null,"decayed_at":null,"tle_current":{"epoch":"2026-09-20T01:38:04.750656Z","epoch_age_seconds":84999,"freshness":"FRESH","line1":"1 68511U 26068D   26263.06811054  .00020068  00000+0  60324-3 0  9990","line2":"2 68511  53.1594 295.7360 0001584  89.4233 270.6951 15.34412782 26857","mean_motion":15.34412782,"eccentricity":0.0001584,"inclination_deg":53.1594,"raan_deg":295.736,"arg_perigee_deg":89.4233,"mean_anomaly_deg":270.6951,"bstar":0.00060324,"rev_number":2685,"period_min":93.846976308621,"perigee_km":461.5816665968,"apogee_km":463.74883274949,"semimajor_km":6840.8022496731,"source":"CELESTRAK","updated_at":"2026-09-20T09:00:43.901105Z"}}}